Date String (YYYY-MM-DD hh:mm:ss) UTC,Instrument flags,Ambient pressure (hPa),Sample flow (lpm),Bypass flow (lpm),Sample temperature (°C),Ambient temperature (°C),ASC tube jacket temperature (°C),LED temperature (°C),Box temperature (°C),Sample RH (%),Span deviation,Mass concentration (μg/m³),Mass concentration (μg/m³),Mass concentration (μg/m³)
DateTimeUTC,F1_M11,P_M11,Q1_M11,Q2_M11,T1_M11,T2_M11,T3_M11,T4_M11,T5_M11,U1_M11,ZSPAN_M11,X2_M11,X0_M11,X1_M11
2022-07-04 22:00:00,,0825.3,5.00,0.00,29.2,27.6,00.0,37.9,31.1,20.1,0000.0,0002.69,0005.27,0001.85
2022-07-04 22:01:00,,0825.3,5.00,0.00,29.2,27.8,00.0,37.9,31.1,20.0,0000.0,0002.66,0005.28,0001.84
2022-07-04 22:02:00,,0825.4,5.01,0.00,29.2,28.0,00.0,37.9,31.2,20.6,0000.0,0002.65,0005.51,0001.83
2022-07-04 22:03:00,,0825.4,4.99,0.00,29.3,28.2,00.0,37.9,31.3,20.2,0000.0,0002.67,0005.63,0001.82
2022-07-04 22:04:00,,0825.4,5.00,0.00,29.3,27.9,00.0,37.9,31.3,20.3,0000.0,0002.67,0005.67,0001.82
2022-07-04 22:05:00,,0825.3,5.01,0.00,29.3,27.2,00.0,37.9,31.1,20.3,0000.0,0002.71,0005.83,0001.83
2022-07-04 22:06:00,,0825.3,5.00,0.00,29.2,26.9,00.0,37.8,31.0,20.3,0000.0,0002.74,0005.97,0001.83
2022-07-04 22:07:00,,0825.3,5.00,0.00,29.2,27.0,00.0,37.8,31.0,20.3,0000.0,0002.69,0005.88,0001.81
2022-07-04 22:08:00,,0825.4,5.00,0.00,29.1,27.1,00.0,37.8,31.0,20.5,0000.0,0002.64,0005.76,0001.80
2022-07-04 22:09:00,,0825.4,5.01,0.00,29.1,27.3,00.0,37.9,31.0,20.7,0000.0,0002.59,0005.64,0001.80
2022-07-04 22:10:00,,0825.4,5.00,0.00,29.1,27.6,00.0,37.9,31.1,20.8,0000.0,0002.58,0005.59,0001.78
2022-07-04 22:11:00,,0825.5,4.99,0.00,29.2,27.8,00.0,37.9,31.1,21.1,0000.0,0002.55,0005.61,0001.79
2022-07-04 22:12:00,,0825.5,5.00,0.00,29.2,28.0,00.0,37.9,31.2,21.4,0000.0,0002.55,0005.14,0001.81
2022-07-04 22:13:00,,0825.5,5.00,0.00,29.3,28.2,00.0,37.9,31.3,21.9,0000.0,0002.59,0004.98,0001.82
2022-07-04 22:14:00,,0825.6,5.01,0.00,29.3,28.0,00.0,37.9,31.3,23.4,0000.0,0002.57,0005.99,0001.83
2022-07-04 22:15:00,,0825.6,5.00,0.00,29.3,27.3,00.0,37.9,31.2,24.5,0000.0,0002.58,0007.65,0001.82
2022-07-04 22:16:00,,0825.5,5.00,0.00,29.2,27.0,00.0,37.8,31.1,23.2,0000.0,0002.57,0008.71,0001.83
2022-07-04 22:17:00,,0825.5,5.00,0.00,29.2,27.0,00.0,37.8,31.0,21.9,0000.0,0002.56,0008.73,0001.85
2022-07-04 22:18:00,,0825.5,4.99,0.00,29.1,27.2,00.0,37.8,31.0,22.2,0000.0,0002.61,0008.76,0001.88
2022-07-04 22:19:00,,0825.5,5.00,0.00,29.1,27.3,00.0,37.9,31.0,21.9,0000.0,0002.61,0008.72,0001.90
2022-07-04 22:20:00,,0825.6,5.00,0.00,29.1,27.5,00.0,37.9,31.0,21.8,0000.0,0002.62,0008.72,0001.91
2022-07-04 22:21:00,,0825.6,5.00,0.00,29.2,27.7,00.0,37.9,31.1,21.9,0000.0,0002.65,0008.76,0001.93
2022-07-04 22:22:00,,0825.6,5.00,0.00,29.2,27.9,00.0,37.9,31.2,22.0,0000.0,0002.63,0008.60,0001.92
2022-07-04 22:23:00,,0825.6,5.00,0.00,29.2,28.1,00.0,37.9,31.2,22.0,0000.0,0002.61,0008.48,0001.90
2022-07-04 22:24:00,,0825.6,5.00,0.00,29.3,28.0,00.0,37.9,31.3,21.9,0000.0,0002.59,0008.35,0001.90
2022-07-04 22:25:00,,0825.6,5.00,0.00,29.3,27.4,00.0,37.9,31.2,22.0,0000.0,0002.59,0008.57,0001.88
2022-07-04 22:26:00,,0825.6,5.00,0.00,29.2,26.9,00.0,37.8,31.0,22.1,0000.0,0002.62,0007.47,0001.88
2022-07-04 22:27:00,,0825.6,5.00,0.00,29.2,26.9,00.0,37.8,31.0,22.3,0000.0,0002.58,0005.84,0001.86
2022-07-04 22:28:00,,0825.7,5.00,0.00,29.1,27.0,00.0,37.8,30.9,22.3,0000.0,0002.53,0005.84,0001.83
2022-07-04 22:29:00,,0825.6,5.00,0.00,29.1,27.2,00.0,37.8,30.9,22.3,0000.0,0002.48,0005.79,0001.81
2022-07-04 22:30:00,,0825.6,5.00,0.00,29.1,27.4,00.0,37.8,31.0,22.1,0000.0,0002.49,0005.78,0001.80
2022-07-04 22:31:00,,0825.7,5.00,0.00,29.1,27.6,00.0,37.9,31.0,22.1,0000.0,0002.48,0005.91,0001.79
2022-07-04 22:32:00,,0825.7,5.00,0.00,29.1,27.8,00.0,37.9,31.1,22.2,0000.0,0002.46,0005.86,0001.79
2022-07-04 22:33:00,,0825.6,5.00,0.00,29.2,28.0,00.0,37.9,31.2,22.0,0000.0,0002.47,0005.94,0001.78
2022-07-04 22:34:00,,0825.7,4.99,0.00,29.2,28.2,00.0,37.9,31.2,21.6,0000.0,0002.45,0006.00,0001.78
2022-07-04 22:35:00,,0825.7,5.00,0.00,29.3,28.2,00.0,37.9,31.3,21.7,0000.0,0002.41,0006.05,0001.76
2022-07-04 22:36:00,,0825.6,5.00,0.00,29.3,27.5,00.0,37.9,31.2,21.7,0000.0,0002.38,0004.61,0001.75
2022-07-04 22:37:00,,0825.7,5.00,0.00,29.2,26.9,00.0,37.8,31.1,21.8,0000.0,0002.31,0004.17,0001.73
2022-07-04 22:38:00,,0825.6,4.99,0.00,29.2,26.8,00.0,37.8,31.0,21.8,0000.0,0002.26,0004.08,0001.70
2022-07-04 22:39:00,,0825.6,5.00,0.00,29.1,27.0,00.0,37.8,30.9,21.6,0000.0,0002.26,0003.93,0001.68
2022-07-04 22:40:00,,0825.6,5.00,0.00,29.1,27.1,00.0,37.8,30.9,21.3,0000.0,0002.30,0004.06,0001.66
2022-07-04 22:41:00,,0825.6,5.00,0.00,29.1,27.3,00.0,37.8,31.0,20.8,0000.0,0002.29,0004.19,0001.61
2022-07-04 22:42:00,,0825.6,5.00,0.00,29.1,27.6,00.0,37.9,31.0,20.8,0000.0,0002.33,0004.36,0001.56
2022-07-04 22:43:00,,0825.6,5.00,0.00,29.1,27.7,00.0,37.9,31.1,19.7,0000.0,0002.36,0005.38,0001.51
2022-07-04 22:44:00,,0825.9,5.00,0.00,29.2,27.9,00.0,37.9,31.1,19.0,0000.0,0002.33,0005.81,0001.47
2022-07-04 22:45:00,,0825.8,5.00,0.00,29.2,28.1,00.0,37.9,31.2,18.8,0000.0,0002.35,0005.79,0001.43
2022-07-04 22:46:00,,0825.9,4.99,0.00,29.3,28.2,00.0,37.9,31.2,19.4,0000.0,0002.31,0005.63,0001.39
2022-07-04 22:47:00,,0825.7,5.00,0.00,29.3,27.7,00.0,37.9,31.2,19.5,0000.0,0002.31,0005.64,0001.37
2022-07-04 22:48:00,,0825.6,5.01,0.00,29.2,26.9,00.0,37.8,31.0,19.5,0000.0,0002.34,0005.71,0001.34
2022-07-04 22:49:00,,0825.6,5.00,0.00,29.2,26.8,00.0,37.8,31.0,20.3,0000.0,0002.32,0005.80,0001.32
2022-07-04 22:50:00,,0825.6,4.99,0.00,29.1,26.9,00.0,37.8,30.9,20.5,0000.0,0002.34,0006.07,0001.30
2022-07-04 22:51:00,,0825.9,5.00,0.00,29.1,27.1,00.0,37.8,30.9,20.7,0000.0,0002.30,0006.39,0001.29
2022-07-04 22:52:00,,0826.2,5.00,0.00,29.1,27.3,00.0,37.8,31.0,20.5,0000.0,0002.27,0006.25,0001.30
2022-07-04 22:53:00,,0826.1,5.01,0.00,29.1,27.5,00.0,37.8,31.0,20.8,0000.0,0002.22,0006.07,0001.30
2022-07-04 22:54:00,,0826.0,5.00,0.00,29.1,27.7,00.0,37.8,31.0,21.0,0000.0,0002.22,0005.34,0001.31
2022-07-04 22:55:00,,0826.1,5.00,0.00,29.1,27.9,00.0,37.9,31.1,19.8,0000.0,0002.30,0005.08,0001.33
2022-07-04 22:56:00,,0826.1,5.00,0.00,29.2,28.0,00.0,37.9,31.2,19.6,0000.0,0002.34,0005.19,0001.35
2022-07-04 22:57:00,,0826.4,5.00,0.00,29.2,28.2,00.0,37.9,31.2,21.3,0000.0,0002.40,0005.39,0001.38
2022-07-04 22:58:00,,0826.6,5.00,0.00,29.2,27.8,00.0,37.9,31.2,22.6,0000.0,0002.39,0005.95,0001.41
2022-07-04 22:59:00,,0826.7,5.00,0.00,29.2,27.0,00.0,37.8,31.0,22.6,0000.0,0002.38,0006.15,0001.44
